sat.trackr.live / text

‹ back to catalog

STARLINK-11553 [DTC]

NORAD 63006 · 2025-032B

PAYLOAD ACTIVE UNKNOWN

§ Identity

Operator
Country
US
Launch date
2025-02-15
Launch site
AFETR
Launch vehicle
Mass (kg)
RCS (m²)

Purposes: comms

External: N2YO · Heavens-Above · Gunter

§ Orbital elements

Epoch: 2026-05-25T04:00:03.998880Z

Period
91.67 min
Inclination
43.0002°
Eccentricity
0.0001495
Mean motion
15.70863754 rev/d
Perigee alt
355.4 km
Apogee alt
357.4 km
Semi-major
6,734.6 km
B*
-6.1722e-4
RAAN
94.7501°
Arg perigee
268.9948°
Mean anomaly
225.1044°
Rev number
597

§ Raw data

STARLINK-11553 [DTC]1 63006U 25032B   26145.16671295 -.00078977  00000+0 -61722-3 0  99922 63006  43.0002  94.7501 0001495 268.9948 225.1044 15.70863754  5972

JSON: /api/v1/satellites/63006 · /tle

For live sub-satellite position, see the globe view (requires WebGL).

§ Visibility from observer

Set your observer location to see the next 7 days of passes ≥ 10°. The values pass through the URL so the page stays shareable.

No JS? Fill the form by hand. The geolocation button needs JavaScript.